[[{"header":{"parameterUnit":"m.s-1","parameterCategory":1,"la1":30.2991,"la2":30.254,"lo1":-89.0895,"lo2":-89.0444,"dy":0.0017,"dx":0.0017,"nx":28,"ny":28,"refTime":"2024-10-01T03:00:00:Z","depth":0,"parameterNumber":2,"parameterNumberName":"U-component_of_WINDS"},"data":[0,0,0,0,0,0,0,0,0,0,0,0,0,0,0,0,0,0,0,0,0,0,0,0,0,0,0,0,0,0,0,0,0,0,0,0,0,0,0,0,0,0,0,0,0,0,0,0,0,0,0,0,0,0,0,0,0,0,-1.3771,-1.3772,0,-1.3881,-1.3882,-1.3883,-1.3854,-1.3852,-1.385,-1.3847,-1.3963,-1.3968,-1.3973,0,0,0,0,0,0,0,0,0,0,0,0,0,-1.3539,-1.3543,-1.3771,-1.3772,-1.3773,-1.388,-1.3882,-1.3883,-1.3854,-1.3852,-1.3849,-1.3846,-1.3961,-1.3967,-1.3973,0,0,0,0,0,0,0,0,0,0,0,0,0,-1.3643,-1.3544,-1.377,-1.3772,-1.3773,-1.388,-1.3882,-1.3884,-1.3855,-1.3852,-1.3848,-1.3845,-1.3959,-1.3967,-1.3974,-1.4088,0,0,-1.3998,-1.4001,0,0,0,0,0,0,0,0,-1.3637,-1.3652,-1.377,-1.3772,-1.3773,-1.385,-1.3842,-1.3952,-1.3856,-1.3824,-1.3847,-1.3844,-1.3928,-1.3938,-1.3966,-1.4093,-1.4098,-1.3998,-1.4003,-1.4006,-1.4009,0,0,0,0,0,0,0,-1.363,-1.3647,-1.3814,-1.3772,-1.3774,-1.3768,-1.3779,-1.3863,-1.3893,-1.3826,-1.3824,-1.3838,-1.3929,-1.3959,-1.3969,-1.41,-1.3998,-1.4005,-1.401,-1.4013,-1.4327,-1.433,0,0,0,0,0,0,-1.3621,-1.3641,-1.3811,-1.3817,-1.3696,-1.3775,-1.3787,-1.3829,-1.3892,-1.3899,-1.384,-1.3836,-1.3947,-1.396,-1.3973,-1.4111,-1.4006,-1.4014,-1.4018,-1.4323,-1.4328,-1.4332,0,0,0,0,0,0,-1.3616,-1.3636,-1.3806,-1.3729,-1.375,-1.3782,-1.3829,-1.3833,-1.3863,-1.3903,-1.3908,-1.3866,-1.3945,-1.3962,-1.406,-1.4115,-1.4017,-1.4024,-1.4319,-1.4325,-1.433,-1.4388,0,0,0,0,0,0,-1.361,-1.3635,-1.3678,-1.373,-1.3754,-1.3891,-1.3832,-1.3837,-1.3876,-1.3871,-1.3928,-1.3934,-1.3944,-1.4048,-1.4067,-1.4124,-1.403,-1.4314,-1.4321,-1.4328,-1.4382,-1.4395,-1.4407,0,0,0,0,0,-1.3601,-1.369,-1.368,-1.3701,-1.3808,-1.3894,-1.3908,-1.3916,-1.3881,-1.3925,-1.395,-1.3933,-1.4105,-1.4058,-1.408,-1.4139,-1.4311,-1.4319,-1.4327,-1.4376,-1.4393,-1.4407,0,0,0,0,0,0,-1.3645,-1.3697,-1.3686,-1.3795,-1.384,-1.3889,-1.3945,-1.3933,-1.399,-1.3984,-1.3992,-1.4005,-1.4106,-1.4132,-1.4079,-1.4253,-1.4203,-1.4216,-1.4233,-1.4249,-1.4261,-1.4254,-1.4036,0,0,0,0,0,-1.3667,-1.3731,-1.3773,-1.3865,-1.3888,-1.3912,-1.395,-1.3952,-1.4,-1.4019,-1.4052,-1.41,-1.4165,-1.4208,-1.427,-1.4384,-1.4397,-1.4436,-1.4448,-1.4459,-1.4471,-1.4535,-1.4553,-1.4359,-1.4359,-1.4359,0,0,-1.3714,-1.375,-1.379,-1.3875,-1.391,-1.3978,-1.3929,-1.4002,-1.4053,-1.4031,-1.4126,-1.4151,-1.4205,-1.4312,-1.4361,-1.4337,-1.4526,-1.4469,-1.4477,-1.4484,-1.4545,-1.4564,-1.458,-1.4365,-1.4364,-1.4363,0,0,-1.3833,-1.3866,-1.3947,-1.3983,-1.4037,-1.4053,-1.4072,-1.4122,-1.4139,-1.4233,-1.4218,-1.4279,-1.439,-1.443,-1.4464,-1.4599,-1.4585,-1.4618,-1.4685,-1.4748,-1.4763,-1.4777,-1.4827,-1.4844,-1.463,-1.463,-1.463,0,-1.3885,-1.3985,-1.399,-1.4065,-1.4103,-1.4085,-1.4168,-1.4203,-1.4274,-1.4302,-1.4273,-1.4413,-1.4448,-1.4565,-1.4598,-1.4626,-1.4649,-1.4613,-1.476,-1.4774,-1.4787,-1.4835,-1.4853,-1.4634,-1.4633,-1.4633,-1.4632,0,-1.4047,-1.4117,-1.4176,-1.4245,-1.4289,-1.4368,-1.4385,-1.443,-1.4428,-1.4447,-1.4544,-1.4585,-1.4655,-1.4683,-1.4682,-1.48,-1.4784,-1.4758,-1.4708,-1.4809,-1.4854,-1.4873,-1.4639,-1.4638,-1.4637,-1.4636,0,0,-1.42,-1.427,-1.4291,-1.4323,-1.4381,-1.4435,-1.4513,-1.4581,-1.462,-1.467,-1.4737,-1.4831,-1.4807,-1.4847,-1.485,-1.4904,-1.501,-1.4872,-1.4873,-1.4898,-1.5145,-1.5166,-1.5187,-1.5001,-1.5004,-1.5007,-1.5142,0,-1.4327,-1.4463,-1.4469,-1.4594,-1.4659,-1.4642,-1.471,-1.4754,-1.4773,-1.4832,-1.4853,-1.4921,-1.4884,-1.4908,-1.496,-1.4986,-1.5061,-1.4976,-1.5065,-1.5068,-1.5055,-1.5211,-1.5233,-1.5358,-1.5159,-1.5162,-1.5164,0,-1.4493,-1.4548,-1.4679,-1.4728,-1.4755,-1.4816,-1.488,-1.4935,-1.4985,-1.4995,-1.5039,-1.5034,-1.5115,-1.506,-1.5172,-1.5115,-1.5151,-1.5169,-1.5174,-1.5185,-1.5124,-1.5228,-1.5398,-1.5418,-1.5192,-1.5189,-1.5187,0,-1.4594,-1.47,-1.4793,-1.482,-1.4878,-1.4922,-1.4949,-1.4994,-1.5035,-1.509,-1.5117,-1.5181,-1.5217,-1.5267,-1.528,-1.5238,-1.5393,-1.5339,-1.5405,-1.5405,-1.5441,-1.5439,-1.5622,-1.546,-1.546,-1.5459,-1.5459,0,-1.4737,-1.4819,-1.4839,-1.4896,-1.4987,-1.4993,-1.5084,-1.5107,-1.5148,-1.521,-1.5199,-1.5258,-1.527,-1.5332,-1.5342,-1.5435,-1.545,-1.5462,-1.5465,-1.5465,-1.5464,-1.5491,-1.5484,-1.5464,-1.5463,-1.5462,-1.5461,0,-1.4867,-1.4883,-1.4983,-1.503,-1.5044,-1.5109,-1.515,-1.5206,-1.5222,-1.5302,-1.5321,-1.5348,-1.542,-1.5437,-1.5523,-1.553,-1.5641,-1.5633,-1.5624,-1.5625,-1.5691,-1.5686,-1.59,-1.593,-1.5746,-1.5748,-1.5749,0,-1.4958,-1.502,-1.5074,-1.5114,-1.5143,-1.5208,-1.5249,-1.5257,-1.5301,-1.5361,-1.541,-1.548,-1.5538,-1.5654,-1.5682,-1.5748,-1.5744,-1.5814,-1.5754,-1.5753,-1.5748,-1.5745,-1.5752,-1.5827,-1.5829,-1.583,-1.5832,0,-1.5119,-1.5124,-1.5183,-1.5246,-1.5296,-1.5346,-1.5393,-1.5427,-1.5442,-1.5492,-1.5565,-1.5609,-1.5697,-1.5768,-1.5834,-1.5862,-1.5851,-1.585,-1.5869,-1.5872,-1.5865,-1.5872,-1.5659,-1.5846,-1.5844,-1.5843,-1.5843,-1.5842,-1.5234,-1.5289,-1.5336,-1.5403,-1.5439,-1.5484,-1.5538,-1.5562,-1.5623,-1.5694,-1.5695,-1.5776,-1.5823,-1.5911,-1.5943,-1.6006,-1.5985,-1.6012,-1.602,-1.6027,-1.6035,-1.5852,-1.6018,-1.6018,-1.6017,-1.6017,-1.6017,0,-1.5397,-1.5426,-1.5487,-1.5554,-1.5607,-1.5589,-1.5641,-1.5687,-1.5757,-1.5802,-1.5858,-1.5943,-1.6011,-1.6044,-1.6112,-1.6157,-1.6154,-1.6175,-1.6173,-1.618,-1.6049,-1.6026,-1.6177,-1.6177,-1.6177,-1.6177,-1.6177,-1.6177,-1.5488,-1.5581,-1.5591,-1.5702,-1.573,-1.5808,-1.584,-1.5881,-1.5917,-1.6012,-1.6069,-1.6089,-1.613,-1.6201,-1.6263,-1.6271,-1.6298,-1.6323,-1.6329,-1.6206,-1.6189,-1.6174,-1.6153,-1.6328,-1.6328,-1.6455,-1.6457,-1.6458]},{"header":{"parameterUnit":"m.s-1","parameterCategory":1,"la1":30.2991,"la2":30.254,"lo1":-89.0895,"lo2":-89.0444,"dy":0.0017,"dx":0.0017,"nx":28,"ny":28,"refTime":"2024-10-01T03:00:00:Z","depth":0,"parameterNumber":3,"parameterNumberName":"V-component_of_WINDS"},"data":[0,0,0,0,0,0,0,0,0,0,0,0,0,0,0,0,0,0,0,0,0,0,0,0,0,0,0,0,0,0,0,0,0,0,0,0,0,0,0,0,0,0,0,0,0,0,0,0,0,0,0,0,0,0,0,0,0,0,-4.749,-4.7491,0,-4.7547,-4.7548,-4.7548,-4.7463,-4.746,-4.7457,-4.7454,-4.7509,-4.7513,-4.7517,0,0,0,0,0,0,0,0,0,0,0,0,0,-4.7302,-4.7306,-4.749,-4.7491,-4.7491,-4.7547,-4.7548,-4.7549,-4.7463,-4.746,-4.7456,-4.7453,-4.7508,-4.7513,-4.7518,0,0,0,0,0,0,0,0,0,0,0,0,0,-4.7374,-4.7308,-4.749,-4.7456,-4.7453,-4.7547,-4.7548,-4.7549,-4.7464,-4.746,-4.7455,-4.7451,-4.7506,-4.7512,-4.7518,-4.7647,0,0,-4.7538,-4.7541,0,0,0,0,0,0,0,0,-4.737,-4.7381,-4.746,-4.7458,-4.7455,-4.7493,-4.7502,-4.7582,-4.7465,-4.746,-4.7454,-4.7449,-4.7507,-4.7513,-4.7534,-4.765,-4.7652,-4.7538,-4.7542,-4.7545,-4.7547,0,0,0,0,0,0,0,-4.7365,-4.7378,-4.7512,-4.7461,-4.7458,-4.7436,-4.7441,-4.7517,-4.7508,-4.746,-4.7454,-4.7462,-4.7505,-4.7528,-4.7534,-4.7653,-4.7538,-4.7544,-4.7548,-4.755,-4.7877,-4.7881,0,0,0,0,0,0,-4.7365,-4.7375,-4.751,-4.7514,-4.7401,-4.7443,-4.7449,-4.7486,-4.7507,-4.7506,-4.7466,-4.7458,-4.7519,-4.7527,-4.7536,-4.7688,-4.7545,-4.7551,-4.7555,-4.7872,-4.7878,-4.7883,0,0,0,0,0,0,-4.7361,-4.7378,-4.7508,-4.7443,-4.7458,-4.7451,-4.7493,-4.7489,-4.7512,-4.7511,-4.7509,-4.7491,-4.7516,-4.7527,-4.762,-4.7688,-4.7554,-4.756,-4.7866,-4.7874,-4.788,-4.7993,0,0,0,0,0,0,-4.7356,-4.7377,-4.7427,-4.7445,-4.7462,-4.7593,-4.7497,-4.7493,-4.7523,-4.7513,-4.7534,-4.7533,-4.7513,-4.7611,-4.7627,-4.7695,-4.7565,-4.786,-4.7869,-4.7878,-4.7983,-4.8003,-4.802,0,0,0,0,0,-4.735,-4.7456,-4.743,-4.7447,-4.7524,-4.7597,-4.7607,-4.7583,-4.7529,-4.7579,-4.7578,-4.7532,-4.7679,-4.7622,-4.7638,-4.7709,-4.7855,-4.7867,-4.7877,-4.7975,-4.7999,-4.802,0,0,0,0,0,0,-4.7445,-4.7458,-4.7429,-4.7544,-4.7571,-4.7583,-4.7645,-4.761,-4.7651,-4.764,-4.7607,-4.7612,-4.7712,-4.772,-4.7656,-4.7834,-4.7758,-4.7773,-4.7826,-4.7849,-4.7868,-4.7864,-4.757,0,0,0,0,0,-4.748,-4.754,-4.7547,-4.7647,-4.7662,-4.7652,-4.7683,-4.7662,-4.7687,-4.7698,-4.7704,-4.7729,-4.7781,-4.7815,-4.7863,-4.7983,-4.7986,-4.804,-4.8059,-4.8074,-4.8088,-4.8151,-4.8175,-4.7919,-4.7919,-4.7918,0,0,-4.7552,-4.7566,-4.7605,-4.7667,-4.7685,-4.7747,-4.7661,-4.773,-4.7775,-4.7707,-4.7797,-4.7802,-4.7828,-4.7936,-4.7983,-4.7945,-4.8159,-4.8088,-4.8101,-4.8105,-4.8165,-4.8189,-4.8211,-4.7926,-4.7925,-4.7924,0,0,-4.7714,-4.7731,-4.7817,-4.7837,-4.7866,-4.7858,-4.7878,-4.7896,-4.7898,-4.7987,-4.7937,-4.7989,-4.8079,-4.8099,-4.8122,-4.8291,-4.8251,-4.8308,-4.8405,-4.8468,-4.8488,-4.8506,-4.8566,-4.8588,-4.8321,-4.8321,-4.8321,0,-4.7799,-4.7892,-4.7865,-4.7938,-4.7966,-4.7908,-4.7994,-4.8014,-4.8057,-4.8077,-4.8034,-4.8145,-4.8158,-4.827,-4.8311,-4.8331,-4.8353,-4.8305,-4.8487,-4.8505,-4.8521,-4.8578,-4.8601,-4.8328,-4.8327,-4.8326,-4.8326,0,-4.7995,-4.8059,-4.8125,-4.8169,-4.8204,-4.8283,-4.8267,-4.8306,-4.8282,-4.8278,-4.8369,-4.8383,-4.8432,-4.8457,-4.8433,-4.8565,-4.854,-4.8493,-4.8415,-4.8553,-4.8606,-4.8627,-4.8337,-4.8335,-4.8333,-4.8331,0,0,-4.8219,-4.8247,-4.8272,-4.8291,-4.8319,-4.8367,-4.8443,-4.8492,-4.8526,-4.8556,-4.8619,-4.8696,-4.8652,-4.8677,-4.8655,-4.871,-4.8844,-4.8656,-4.8656,-4.869,-4.8989,-4.9025,-4.9051,-4.8817,-4.8821,-4.8824,-4.8987,0,-4.8381,-4.8514,-4.8492,-4.8619,-4.8678,-4.8624,-4.869,-4.8713,-4.8712,-4.876,-4.8757,-4.8813,-4.8751,-4.8766,-4.8818,-4.8817,-4.8903,-4.8804,-4.8873,-4.8876,-4.8869,-4.9078,-4.9117,-4.9269,-4.9007,-4.9011,-4.9013,0,-4.8588,-4.8628,-4.8762,-4.878,-4.8804,-4.8864,-4.8907,-4.8954,-4.8979,-4.8974,-4.9002,-4.897,-4.9044,-4.8966,-4.9066,-4.9,-4.9026,-4.903,-4.9035,-4.9041,-4.8953,-4.909,-4.9318,-4.9341,-4.9046,-4.9043,-4.9041,0,-4.8738,-4.8825,-4.8917,-4.8935,-4.8958,-4.9001,-4.9013,-4.9033,-4.9064,-4.9101,-4.9121,-4.9165,-4.919,-4.9225,-4.9205,-4.915,-4.9309,-4.9229,-4.9306,-4.9307,-4.9343,-4.9341,-4.9578,-4.936,-4.9359,-4.9359,-4.9359,0,-4.8922,-4.9006,-4.8985,-4.9041,-4.9134,-4.9107,-4.9198,-4.9203,-4.9221,-4.9277,-4.9232,-4.9284,-4.9255,-4.9305,-4.929,-4.9376,-4.9387,-4.9384,-4.9379,-4.9388,-4.9389,-4.9405,-4.9394,-4.9365,-4.9364,-4.9363,-4.9361,0,-4.9105,-4.9095,-4.9191,-4.9206,-4.9211,-4.9278,-4.929,-4.9342,-4.9336,-4.9407,-4.9422,-4.9413,-4.947,-4.9454,-4.9514,-4.9504,-4.9612,-4.9594,-4.9605,-4.96,-4.9678,-4.9671,-4.9935,-4.9968,-4.9728,-4.9731,-4.9733,0,-4.9223,-4.9287,-4.9309,-4.9343,-4.9358,-4.9414,-4.9446,-4.9421,-4.9456,-4.9489,-4.9536,-4.9589,-4.963,-4.9722,-4.972,-4.9766,-4.9748,-4.9837,-4.9755,-4.9762,-4.975,-4.9746,-4.9752,-4.9854,-4.9857,-4.9859,-4.9861,0,-4.9434,-4.9425,-4.9473,-4.952,-4.9559,-4.9594,-4.9625,-4.9655,-4.9633,-4.9673,-4.9731,-4.9763,-4.9825,-4.9878,-4.992,-4.9929,-4.9892,-4.9887,-4.9907,-4.9917,-4.9921,-4.992,-4.965,-4.9881,-4.9879,-4.9878,-4.9876,-4.9876,-4.9588,-4.9642,-4.9666,-4.9721,-4.9741,-4.9771,-4.9821,-4.9822,-4.987,-4.992,-4.9902,-4.9968,-4.999,-5.0043,-5.0058,-5.0108,-5.0074,-5.0103,-5.0111,-5.0119,-5.0129,-4.9913,-5.0116,-5.0115,-5.0114,-5.0114,-5.0113,0,-4.9796,-4.9809,-4.986,-4.9905,-4.9948,-4.9909,-4.9941,-4.9979,-5.0038,-5.0063,-5.0104,-5.017,-5.0221,-5.0223,-5.027,-5.031,-5.0294,-5.0323,-5.032,-5.0323,-5.0156,-5.0134,-5.0335,-5.0335,-5.0335,-5.0335,-5.0335,-5.0335,-4.9909,-4.9999,-4.9993,-5.0092,-5.0103,-5.0169,-5.0191,-5.0217,-5.0237,-5.0313,-5.0355,-5.0357,-5.0372,-5.042,-5.0464,-5.0463,-5.0482,-5.0519,-5.0511,-5.0356,-5.0334,-5.0313,-5.0292,-5.0523,-5.0523,-5.0673,-5.0675,-5.0676]}]]